Location: Goettingen
(51.5300°N, 9.9433°E)
Time: 00:39:41
(UTC+02:00)

ISS - Pass Details

Date: 15 September 2018
Orbit: 403 x 408 km, 51.6° (Epoch: 23 September)

Event Time Altitude Azimuth Distance (km) Brightness Sun altitude
Exits shadow 04:59:59 46° 188° (S) 552 -3.5 -17.7°
Drops below altitude 10° 05:02:55 10° 128° (SE) 1,459 -0.7 -17.3°
Sets 05:05:02 0° 122° (ESE) 2,315 0.4 -17.0°
